Location: Abbey Hill
(34.0751°N, 84.0688°W)
Time: 12:27:38
(UTC+00:00)

Envisat - Pass Details

Date: 05 October 2021
Orbit: 764 x 766 km, 98.2° (Epoch: 20 October)

Event Time Altitude Azimuth Distance (km) Brightness Sun altitude
Rises 09:29:44 0° 34° (NE) 3,233 6.9 -26.4°
Reaches altitude 10° 09:32:59 10° 56° (ENE) 2,301 6.4 -25.7°
Maximum altitude 09:35:59 16° 93° (E) 1,928 5.9 -25.1°
Drops below altitude 10° 09:38:59 10° 130° (SE) 2,293 5.9 -24.5°
Sets 09:42:12 0° 152° (SSE) 3,214 6.4 -23.9°
